Location: Bagnolo San Vito
(45.0833°N, 10.8833°E)
Time: 23:59:44
(UTC+00:00)

Cosmos 1461 - Pass Details

Date: 03 March 2021
Orbit: 505 x 659 km, 65.0° (Epoch: 17 April)

Event Time Altitude Azimuth Distance (km) Brightness Sun altitude
Rises 17:28:16 0° 219° (SW) 2,953 7.3 -4.6°
Reaches altitude 10° 17:30:33 10° 221° (SW) 2,057 6.5 -5.0°
Maximum altitude 17:35:14 73° 306° (NW) 692 3.5 -5.8°
Drops below altitude 10° 17:39:59 10° 32° (NNE) 2,077 5.4 -6.7°
Sets 17:42:18 0° 34° (NE) 2,984 6.2 -7.1°
